EW3804 Weather Reports


Display with metric or nautical units.
time (UTC)temp
F
wind
direction
speed
MPH
gust
MPH
rain 1hr
in
rain 24hr
in
rain mn
in
humidity
%
barometer
mb
20260831050008 84 123 3.0 7.0 0.00 0.00 0.00 60 1007.0
20260831044508 83 160 2.0 5.0 0.00 0.00 0.00 59 1007.0
20260831043006 84 158 2.0 5.0 0.00 0.00 0.00 57 1006.8
20260831041510 84 153 3.0 7.0 0.00 0.00 0.00 56 1006.7
20260831040006 84 114 4.0 8.0 0.00 0.00 0.00 55 1006.6
20260831034505 85 136 4.0 7.0 0.00 0.00 0.00 54 1006.4
20260831033012 85 134 3.0 5.0 0.00 0.00 0.00 53 1006.2
20260831031503 86 146 2.0 6.0 0.00 0.00 0.00 52 1006.1
20260831030004 86 125 2.0 4.0 0.00 0.00 0.00 52 1006.0
20260831024503 86 150 2.0 3.0 0.00 0.00 0.00 50 1005.8
20260831023006 87 124 0.0 3.0 0.00 0.00 0.00 49 1005.6
20260831021502 88 125 1.0 3.0 0.00 0.00 0.00 48 1005.4
20260831020002 89 141 1.0 4.0 0.00 0.00 0.00 46 1005.3
20260831014501 90 148 0.0 2.0 0.00 0.00 0.00 45 1005.1
20260831013100 91 127 1.0 3.0 0.00 0.00 0.00 44 1004.9
20260831011600 92 119 0.0 5.0 0.00 0.00 0.00 42 1004.8
20260831010114 93 134 3.0 7.0 0.00 0.00 0.00 41 1004.7
20260831004602 94 126 3.0 8.0 0.00 0.00 0.00 40 1004.7
20260831003057 95 129 6.0 12.0 0.00 0.00 0.00 38 1004.5
20260831001556 96 127 7.0 13.0 0.00 0.00 0.00 38 1004.6
20260831000104 97 106 6.0 11.0 0.00 0.00 0.00 36 1004.6
20260830234601 97 129 6.0 13.0 0.00 0.00 0.00 35 1004.7
20260830233054 98 117 5.0 13.0 0.00 0.00 0.00 35 1004.6
20260830231555 98 152 5.0 12.0 0.00 0.00 0.00 36 1004.8
20260830230054 97 117 4.0 11.0 0.00 0.00 0.00 36 1004.8
20260830224552 97 127 4.0 13.0 0.00 0.00 0.00 36 1004.8
20260830223051 97 135 7.0 13.0 0.00 0.00 0.00 37 1004.9
20260830221550 99 134 5.0 15.0 0.00 0.00 0.00 33 1004.9
20260830220050 99 143 4.0 11.0 0.00 0.00 0.00 34 1005.0
20260830214548 98 146 4.0 11.0 0.00 0.00 0.00 33 1005.0
20260830213101 99 97 6.0 12.0 0.00 0.00 0.00 31 1005.2
20260830211543 98 139 4.0 9.0 0.00 0.00 0.00 33 1005.4
20260830210042 98 128 4.0 11.0 0.00 0.00 0.00 35 1005.5
20260830204543 98 111 6.0 13.0 0.00 0.00 0.00 33 1005.8
20260830203039 99 158 8.0 13.0 0.00 0.00 0.00 33 1006.0
20260830201537 98 210 4.0 13.0 0.00 0.00 0.00 35 1006.1
20260830200035 98 226 5.0 17.0 0.00 0.00 0.00 34 1006.3
20260830194535 98 165 6.0 13.0 0.00 0.00 0.00 34 1006.5
20260830193034 98 155 7.0 13.0 0.00 0.00 0.00 37 1006.8
20260830191533 98 146 5.0 9.0 0.00 0.00 0.00 38 1007.0
20260830190025 96 117 5.0 13.0 0.00 0.00 0.00 39 1007.3
20260830184535 97 160 3.0 12.0 0.00 0.00 0.00 38 1007.4
20260830183022 97 113 4.0 13.0 0.00 0.00 0.00 41 1007.6
20260830181520 96 175 6.0 14.0 0.00 0.00 0.00 40 1007.9
20260830180017 95 139 9.0 15.0 0.00 0.00 0.00 43 1008.2
20260830174517 94 132 5.0 14.0 0.00 0.00 0.00 45 1008.4
20260830173012 94 153 6.0 12.0 0.00 0.00 0.00 45 1008.7
20260830171510 93 139 6.0 10.0 0.00 0.00 0.00 47 1009.0
20260830170006 93 191 5.0 10.0 0.00 0.00 0.00 50 1009.1
20260830164503 91 180 6.0 12.0 0.00 0.00 0.00 51 1009.4
20260830163002 91 174 5.0 11.0 0.00 0.00 0.00 52 1009.5
20260830161619 90 204 4.0 11.0 0.00 0.00 0.00 55 1009.5
20260830160055 89 131 6.0 13.0 0.00 0.00 0.00 56 1009.5
20260830154552 88 207 3.0 10.0 0.00 0.00 0.00 60 1009.4
20260830153051 88 216 4.0 9.0 0.00 0.00 0.00 61 1009.4
20260830151548 86 165 4.0 10.0 0.00 0.00 0.00 64 1009.4
20260830150111 85 162 4.0 9.0 0.00 0.00 0.00 66 1009.3
20260830144546 85 187 5.0 10.0 0.00 0.00 0.00 67 1009.4
20260830143045 84 181 5.0 9.0 0.00 0.00 0.00 69 1009.4
20260830141541 83 166 3.0 7.0 0.00 0.00 0.00 71 1009.2
20260830140041 82 193 4.0 8.0 0.00 0.00 0.00 74 1009.2
20260830134543 80 142 2.0 5.0 0.00 0.00 0.00 77 1009.1
20260830133045 79 134 3.0 5.0 0.00 0.00 0.00 79 1008.9
20260830131536 78 137 1.0 4.0 0.00 0.00 0.00 81 1008.8
20260830130035 77 141 1.0 4.0 0.00 0.00 0.00 82 1008.7
20260830124530 0 0.0 0.0 0.00 0.00 0.00 1008.6
20260830123026 0 0.0 0.0 0.00 0.00 0.00 1008.5
20260830121521 0 0.0 0.0 0.00 0.00 0.00 1008.2
20260830120021 0 0.0 0.0 0.00 0.00 0.00 1008.2
20260830114513 0 0.0 0.0 0.00 0.00 0.00 1007.9
20260830113011 0 0.0 0.0 0.00 0.00 0.00 1007.7
20260830111503 0 0.0 0.0 0.00 0.00 0.00 1007.6
20260830110101 0 0.0 0.0 0.00 0.00 0.00 1007.5
20260830104554 0 0.0 0.0 0.00 0.00 0.00 1007.4
20260830103051 0 0.0 0.0 0.00 0.00 0.00 1007.5
20260830101549 0 0.0 0.0 0.00 0.00 0.00 1007.4
20260830100041 0 0.0 0.0 0.00 0.00 0.00 1007.4
20260830094537 78 150 0.0 2.0 0.00 0.00 0.00 78 1007.3
20260830093035 79 179 0.0 4.0 0.00 0.00 0.00 79 1007.3
20260830091533 80 211 3.0 6.0 0.00 0.00 0.00 78 1007.3
20260830090051 80 193 3.0 9.0 0.00 0.00 0.00 77 1007.2
20260830084529 81 187 4.0 8.0 0.00 0.00 0.00 76 1007.2
20260830083038 81 168 4.0 9.0 0.00 0.00 0.00 75 1007.3
20260830081525 82 141 4.0 8.0 0.00 0.00 0.00 75 1007.2
20260830080022 82 165 5.0 12.0 0.00 0.00 0.00 74 1007.2
20260830074520 82 175 5.0 10.0 0.00 0.00 0.00 74 1007.4
20260830073019 82 182 4.0 9.0 0.00 0.00 0.00 73 1007.5
20260830071519 83 136 3.0 6.0 0.00 0.00 0.00 72 1007.3
20260830070016 83 147 4.0 10.0 0.00 0.00 0.00 71 1007.4
20260830064514 84 174 3.0 10.0 0.00 0.00 0.00 70 1007.4
20260830063012 84 126 3.0 5.0 0.00 0.00 0.00 68 1007.5
20260830061511 84 139 4.0 12.0 0.00 0.00 0.00 66 1007.5
20260830060008 85 170 5.0 9.0 0.00 0.00 0.00 65 1007.5
20260830054504 85 188 4.0 8.0 0.00 0.00 0.00 64 1007.4
20260830053003 85 170 3.0 7.0 0.00 0.00 0.00 61 1007.3
20260830051559 85 165 4.0 9.0 0.00 0.00 0.00 58 1007.3